Starlink 5865

operational
NORAD ID: 57053 Int'l Des: 2023-088 Owner: SPXS Country: US Constellation: starlink
LEOCIRCULAR

Über Starlink 5865

Beschreibung wird geladen...

Live-Position

3D-Globus wird geladen...

Nächste Überflüge

Höhenverlauf

Altitude vs Time

uPlot chart will show altitude changes over time

Zweizeiliger Elementsatz

1 57053U 23088F 25306.08259494 -.00000228 00000-0 -18263-5 0 9997
2 57053 43.0039 80.9109 0001262 271.6315 88.4383 15.02533349131176
Epoch: 2. Nov. 2025 • Age: 44 hours

Aktueller Status

Höhe 561.3 km
Geschwindigkeit 7.58 km/s
Subsatellitenpunkt -12.79°S, 107.55°W
Startdatum 22. Juni 2023
Alter 2.3 years
Typ internet

Technische Details

Klassifizierung Payload
Masse 305.00 kg
Trockenmasse 290.00 kg
Gesamtmasse 305.00 kg
Länge 0.20 m
Durchmesser 2.80 m
Spannweite 9.00 m
Form Box + pan
Hersteller SPXS
Bus-Typ Starlink
Phasenstatus In Orbit
Besitzer/Staat SPXS/US

Große Konstellationen

Loading constellations...